Starlink 31903

operational
NORAD ID: 59845 Int'l Des: 2024-097 Owner: SPXS Country: US Constellation: starlink
LEOCIRCULAR

关于 Starlink 31903

正在加载描述...

实时位置

正在加载3D地球...

即将过境

高度历史

Altitude vs Time

uPlot chart will show altitude changes over time

两行轨道根数

1 59845U 24097L 25259.14712370 .00006064 00000-0 22998-3 0 9990
2 59845 43.0013 173.0830 0000706 272.3139 87.7632 15.27537699 75308
Epoch: Sep 16, 2025 • Age: 13 hours

当前状态

高度 483.7 km
速度 7.63 km/s
星下点 27.10°N, 70.72°E
发射日期 May 23, 2024
运行时间 1.3 years
类型 internet

技术详情

分类 Payload
质量 730.00 kg
干质量 700.00 kg
总质量 730.00 kg
长度 0.30 m
直径 4.10 m
跨度 29.00 m
形状 Box + pan
制造商 SPXS
平台类型 Starlink V2M
阶段状态 In Orbit
所有者/国家 SPXS/US

大型星座

Loading constellations...